409  
ASUS42 KFFC 220310  
RWRGA  
WEATHER ROUNDUP FOR GEORGIA  
NATIONAL WEATHER SERVICE PEACHTREE CITY GA  
1100 PM EDT TUE MAY 21 2019  
 
NOTE: "FAIR" INDICATES FEW OR NO CLOUDS BELOW 12,000 FEET WITH NO  
SIGNIFICANT WEATHER AND/OR S TO VISIBILITY
.  
 
* = USE WITH CAUTION. THE STATIONS MARKED WITH AN ASTERISK MAY NOT  
REPORT WEATHER SUCH AS PRECIPITATION, FOG, OR THUNDER AND ARE NOT  
QUALITY CONTROLLED BY NWS.  
 
THE REMARK "TC" DENOTES TEMPERATURE READING IN DEGREES CELSIUS.  
 
GAZ001>058-220400-  
NORTH GEORGIA  
 
CITY SKY/WX TMP DP RH WIND PRES REMARKS
 
ATLANTA MOCLDY 81 64 56 SW3 29.98R  
ATHENS FAIR 73 60 63 E6 29.99R  
CHAMBLEE FAIR 72 63 73 CALM 29.98R  
PEACHTREE CITY FAIR 73 68 84 CALM 29.98R  
ROME FAIR 72 66 81 CALM 29.94R  
WEST ATLANTA MOCLDY 75 67 76 CALM 29.97R  
GAINESVILLE FAIR 75 62 64 E5 30.03R  
CARTERSVILLE FAIR 70 66 87 CALM 29.97R  
 
 
CITY SKY/WX TMP DP RH WIND PRES REMARKS
 
DALTON* FAIR 72 64 78 CALM 29.96R  
LAWRENCEVILLE* FAIR 72 65 78 CALM 30.00R  
MARIETTA PTCLDY 78 64 62 SE1 29.98R  
KENNESAW* FAIR 76 65 68 CALM 29.99R  
CANTON* FAIR 77 63 61 E3 30.01R  
BLAIRSVILLE* FAIR 65 60 83 CALM 30.06R  

 
 
GAZ059>098-102>109-220400-  
CENTRAL GEORGIA  
 
CITY SKY/WX TMP DP RH WIND PRES REMARKS
 
AUGUSTA-BUSH FAIR 71 64 78 CALM 29.97R  
AUGUSTA-DANIEL FAIR 85 54 34 NE5 29.99R  
COLUMBUS FAIR 81 64 56 CALM 29.95R  
MACON FAIR 75 67 76 NE6 29.96R  
ROBINS AFB CLEAR 74 69 86 CALM 29.95R  
 
 
CITY SKY/WX TMP DP RH WIND PRES REMARKS
 
LAGRANGE* FAIR 72 71 98 CALM 29.98R  
SYLVANIA* MOCLDY 78 67 68 CALM 30.00R  
MILLEDGEVILLE* FAIR 75 68 78 CALM 29.97R  

 
 
GAZ099>101-110>166-220400-  
SOUTH GEORGIA  
 
CITY SKY/WX TMP DP RH WIND PRES REMARKS
 
SAVANNAH FAIR 78 73 84 SE5 29.99R  
VALDOSTA FAIR 73 65 75 CALM 29.97R  
ALMA FAIR 79 65 62 SE5 29.98R  
ST SIMONS FAIR 80 72 76 S10 29.99R  
FT STEWART FAIR 76 70 81 CALM 29.97R  
HUNTER AFB FAIR 77 73 86 SE3 29.96R  
MOODY AFB FAIR 82 64 53 SW6 29.97R  
BRUNSWICK FAIR 78 72 83 S7 29.99R  
 
 
CITY SKY/WX TMP DP RH WIND PRES REMARKS
 
BAINBRIDGE* N/A 79 57 47 MISG 29.97R  
MOULTRIE* FAIR 79 63 57 CALM 29.98R  
VIDALIA* MOCLDY 81 64 57 S5 29.98R  
WAYCROSS* FAIR 81 58 46 S6 29.98R  
DOUGLAS* FAIR 76 67 72 S5 29.99R  

 
 
 
CLICK HERE TO GO TO PREVIOUS BULLETINS.

The Nexlab GA Page Main Text Page